Weather History for Kendall, FL

Change the Weather History Date:

Wednesday, May 9, 2012

  Actual Average Record
Temperature  
Mean Temperature 77 °F -  
Max Temperature 89 °F 84 °F 93 °F (1998)
Min Temperature 66 °F 67 °F 52 °F (1992)
Cooling Degree Days 12    
Growing Degree Days 27 (Base 50)    
Moisture  
Dew Point 70 °F    
Average Humidity 77    
Maximum Humidity 100    
Minimum Humidity 51    
Precipitation  
Precipitation 0.00 in - - ()
Sea Level Pressure  
Sea Level Pressure 29.89 in    
Wind  
Wind Speed 4 mph (SW)    
Max Wind Speed 15 mph    
Max Gust Speed 24 mph    
Visibility 10 miles    
Events      
Averages and records for this station are not official NWS values.
T = Trace of Precipitation, MM = Missing Value Source: NWS Daily Summary

Daily Weather History Graph

Daily Weather History Graph

Search for Another Location

Airport:

Trip Planner

Search our weather history database for the weather conditions in past years. The results will help you decide how hot, cold, wet, or windy it might be!

Date:

Astronomy

May. 09, 2012 Rise Set
Actual Time 6:39 AM EDT 7:57 PM EDT
Civil Twilight 6:14 AM EDT 8:21 PM EDT
Nautical Twilight 5:45 AM EDT 8:51 PM EDT
Astronomical Twilight 5:15 AM EDT 9:21 PM EDT
Moon 11:52 PM EDT (5/9) 9:58 AM EDT (5/9)
Length of Visible Light 14h 07m
Length of Day
13h 17m
Waning Gibbous, 83% of the Moon is Illuminated
May 9
Waning Gibbous
May 12
Last Quarter
May 20
New
May 28
First Quarter
Jun 4
Full

Hourly Weather History & Observations

Time (EDT) Temp. Heat Index Dew Point Humidity Pressure Visibility Wind Dir Wind Speed Gust Speed Precip Events Conditions
12:53 AM 70.0 °F - 68.0 °F 93% 29.93 in 10.0 mi Calm Calm - N/A   Clear
1:53 AM 69.1 °F - 68.0 °F 96% 29.91 in 10.0 mi Calm Calm - N/A   Clear
2:53 AM 68.0 °F - 66.9 °F 96% 29.90 in 10.0 mi Calm Calm - N/A   Clear
3:53 AM 68.0 °F - 68.0 °F 100% 29.89 in 10.0 mi Calm Calm - N/A   Clear
4:53 AM 66.9 °F - 66.9 °F 100% 29.90 in 10.0 mi South 3.5 mph - N/A   Partly Cloudy
5:53 AM 70.0 °F - 70.0 °F 100% 29.90 in 10.0 mi Calm Calm - N/A   Clear
6:53 AM 71.1 °F - 70.0 °F 96% 29.91 in 9.0 mi Calm Calm - N/A   Mostly Cloudy
7:53 AM 73.9 °F - 73.0 °F 97% 29.92 in 10.0 mi Calm Calm - N/A   Clear
8:53 AM 77.0 °F - 73.0 °F 88% 29.93 in 10.0 mi SSW 5.8 mph - N/A   Clear
9:53 AM 80.1 °F 83.8 °F 72.0 °F 76% 29.92 in 10.0 mi SW 4.6 mph - N/A   Scattered Clouds
10:02 AM 80.6 °F 84.6 °F 71.6 °F 74% 29.92 in 10.0 mi SW 8.1 mph - N/A   Mostly Cloudy
10:18 AM 80.6 °F 84.6 °F 71.6 °F 74% 29.93 in 10.0 mi SW 8.1 mph - N/A   Scattered Clouds
10:53 AM 82.9 °F 87.0 °F 70.0 °F 65% 29.92 in 10.0 mi Variable 5.8 mph - N/A   Partly Cloudy
11:53 AM 84.0 °F 87.0 °F 68.0 °F 58% 29.91 in 10.0 mi South 6.9 mph - N/A   Mostly Cloudy
12:53 PM 84.9 °F 88.2 °F 68.0 °F 57% 29.89 in 10.0 mi SSW 10.4 mph - N/A   Mostly Cloudy
1:53 PM 87.1 °F 89.9 °F 66.9 °F 51% 29.88 in 10.0 mi WSW 11.5 mph 16.1 mph N/A   Mostly Cloudy
2:53 PM 88.0 °F 91.4 °F 68.0 °F 51% 29.85 in 10.0 mi SW 15.0 mph 24.2 mph N/A   Scattered Clouds
3:53 PM 88.0 °F 92.1 °F 69.1 °F 53% 29.85 in 10.0 mi SW 10.4 mph 20.7 mph N/A   Partly Cloudy
4:53 PM 87.8 °F 92.6 °F 69.8 °F 55% 29.83 in 10.0 mi SSW 12.7 mph - N/A   Scattered Clouds
5:53 PM 84.0 °F 88.4 °F 70.0 °F 63% 29.82 in 10.0 mi South 8.1 mph - N/A   Mostly Cloudy
6:53 PM 84.9 °F 88.8 °F 69.1 °F 59% 29.82 in 10.0 mi West 10.4 mph - 0.00 in   Mostly Cloudy
7:53 PM 80.1 °F 83.2 °F 70.0 °F 71% 29.83 in 10.0 mi West 8.1 mph - N/A   Clear
8:53 PM 75.9 °F - 70.0 °F 82% 29.85 in 10.0 mi West 5.8 mph - N/A   Clear
9:53 PM 77.0 °F - 70.0 °F 79% 29.86 in 10.0 mi WSW 4.6 mph - N/A   Clear
10:53 PM 75.9 °F - 71.1 °F 85% 29.88 in 10.0 mi SW 3.5 mph - N/A   Clear
11:53 PM 75.0 °F - 72.0 °F 90% 29.88 in 9.0 mi SSW 3.5 mph - N/A   Clear